sat.trackr.live / text

‹ back to catalog

STARLINK-35143

NORAD 65485 · 2025-195AD

PAYLOAD ACTIVE UNKNOWN

§ Identity

Operator
Country
US
Launch date
2025-09-03
Launch site
AFETR
Launch vehicle
Mass (kg)
RCS (m²)

Purposes: comms

External: N2YO · Heavens-Above · Gunter

§ Orbital elements

Epoch: 2026-05-24T16:28:40.311552Z

Period
94.11 min
Inclination
53.1582°
Eccentricity
0.0001189
Mean motion
15.30192621 rev/d
Perigee alt
474.4 km
Apogee alt
476.1 km
Semi-major
6,853.4 km
B*
1.0937e-3
RAAN
264.8395°
Arg perigee
80.6945°
Mean anomaly
279.4190°
Rev number
4,161

§ Raw data

STARLINK-351431 65485U 25195AD  26144.68657768  .00032166  00000+0  10937-2 0  99992 65485  53.1582 264.8395 0001189  80.6945 279.4190 15.30192621 41616

JSON: /api/v1/satellites/65485 · /tle

For live sub-satellite position, see the globe view (requires WebGL).

§ Visibility from observer

Set your observer location to see the next 7 days of passes ≥ 10°. The values pass through the URL so the page stays shareable.

No JS? Fill the form by hand. The geolocation button needs JavaScript.